Zurück zum Katalog

STARLINK-37012

AktivKommunikationSSO
NORAD 68221·PAYLOAD·🇺🇸 United States

Gestartet Mar 17, 2026 von Vandenberg Space Force Base

Loading…

Nächste Überflüge (nächste 24 Stunden)

TLE

AktuellSource: CelesTrak SupGP

Epoche: Sep 14, 2026, 21:32 UTC

1 68221C 26053Q   26257.89770833  .00008075  00000+0  25076-3 0  2571
2 68221  97.2847 131.7580 0001774  94.8303 316.5603 15.33422124    11

Verfolge STARLINK-37012 in Echtzeit mit AllMySat

Download on the App Store